| time (UTC) | temp F | wind direction | speed MPH | gust MPH | rain 1hr in | rain 24hr in | rain mn in | humidity % | barometer mb |
| 20260510181526 | 66 | 5 | 8.0 | 20.0 | 0.00 | 0.00 | 0.00 | 28 | 981.1 |
| 20260510180025 | 65 | 6 | 7.0 | 20.0 | 0.00 | 0.00 | 0.00 | 30 | 981.2 |
| 20260510174524 | 65 | 5 | 8.0 | 17.0 | 0.00 | 0.00 | 0.00 | 29 | 981.3 |
| 20260510173023 | 65 | 4 | 7.0 | 16.0 | 0.00 | 0.00 | 0.00 | 28 | 981.2 |
| 20260510171521 | 64 | 6 | 5.0 | 18.0 | 0.00 | 0.00 | 0.00 | 33 | 981.5 |
| 20260510170020 | 63 | 6 | 5.0 | 18.0 | 0.00 | 0.00 | 0.00 | 33 | 981.8 |
| 20260510164521 | 63 | 6 | 2.0 | 17.0 | 0.00 | 0.00 | 0.00 | 35 | 981.8 |
| 20260510163016 | 62 | 6 | 10.0 | 21.0 | 0.00 | 0.00 | 0.00 | 28 | 982.0 |
| 20260510161513 | 62 | 4 | 4.0 | 15.0 | 0.00 | 0.00 | 0.00 | 31 | 981.8 |
| 20260510160014 | 61 | 5 | 7.0 | 18.0 | 0.00 | 0.00 | 0.00 | 31 | 981.8 |
| 20260510154509 | 61 | 6 | 3.0 | 14.0 | 0.00 | 0.00 | 0.00 | 31 | 981.5 |
| 20260510153013 | 60 | 6 | 4.0 | 11.0 | 0.00 | 0.00 | 0.00 | 36 | 981.5 |
| 20260510151506 | 60 | 5 | 6.0 | 11.0 | 0.00 | 0.00 | 0.00 | 36 | 981.3 |
| 20260510150003 | 59 | 6 | 3.0 | 8.0 | 0.00 | 0.00 | 0.00 | 35 | 981.3 |
| 20260510144617 | 58 | 6 | 3.0 | 8.0 | 0.00 | 0.00 | 0.00 | 39 | 981.4 |
| 20260510143059 | 57 | 4 | 2.0 | 6.0 | 0.00 | 0.00 | 0.00 | 37 | 981.4 |
| 20260510141556 | 57 | 4 | 2.0 | 5.0 | 0.00 | 0.00 | 0.00 | 39 | 981.4 |
| 20260510140052 | 55 | 4 | 2.0 | 5.0 | 0.00 | 0.00 | 0.00 | 38 | 981.4 |
| 20260510134553 | 54 | 5 | 1.0 | 3.0 | 0.00 | 0.00 | 0.00 | 41 | 981.4 |
| 20260510133045 | 53 | 4 | 2.0 | 4.0 | 0.00 | 0.00 | 0.00 | 44 | 981.5 |
| 20260510131545 | 51 | 6 | 2.0 | 5.0 | 0.00 | 0.00 | 0.00 | 48 | 981.2 |
| 20260510130038 | 49 | 5 | 2.0 | 5.0 | 0.00 | 0.00 | 0.00 | 52 | 981.1 |
| 20260510124536 | 47 | 6 | 2.0 | 4.0 | 0.00 | 0.00 | 0.00 | 52 | 980.9 |
| 20260510123036 | 45 | 5 | 2.0 | 4.0 | 0.00 | 0.00 | 0.00 | 52 | 980.9 |
| 20260510121533 | 44 | 5 | 1.0 | 4.0 | 0.00 | 0.00 | 0.00 | 54 | 980.6 |
| 20260510120032 | 42 | 4 | 1.0 | 4.0 | 0.00 | 0.00 | 0.00 | 54 | 980.6 |
| 20260510114531 | 42 | 6 | 1.0 | 4.0 | 0.00 | 0.00 | 0.00 | 54 | 980.6 |
| 20260510113028 | 42 | 6 | 2.0 | 4.0 | 0.00 | 0.00 | 0.00 | 53 | 980.3 |
| 20260510111528 | 42 | 6 | 3.0 | 5.0 | 0.00 | 0.00 | 0.00 | 53 | 980.2 |
| 20260510110035 | 42 | 5 | 1.0 | 3.0 | 0.00 | 0.00 | 0.00 | 54 | 980.1 |
| 20260510104525 | 42 | 6 | 3.0 | 5.0 | 0.00 | 0.00 | 0.00 | 53 | 979.8 |
| 20260510103025 | 42 | 4 | 1.0 | 6.0 | 0.00 | 0.00 | 0.00 | 52 | 979.8 |
| 20260510101524 | 42 | 6 | 2.0 | 4.0 | 0.00 | 0.00 | 0.00 | 53 | 979.8 |
| 20260510100021 | 43 | 6 | 2.0 | 4.0 | 0.00 | 0.00 | 0.00 | 52 | 979.8 |
| 20260510094538 | 43 | 5 | 1.0 | 4.0 | 0.00 | 0.00 | 0.00 | 52 | 979.9 |
| 20260510093018 | 43 | 6 | 1.0 | 5.0 | 0.00 | 0.00 | 0.00 | 52 | 979.8 |
| 20260510091521 | 44 | 6 | 2.0 | 5.0 | 0.00 | 0.00 | 0.00 | 50 | 979.7 |
| 20260510090016 | 44 | 6 | 1.0 | 5.0 | 0.00 | 0.00 | 0.00 | 50 | 979.5 |
| 20260510084509 | 45 | 5 | 1.0 | 5.0 | 0.00 | 0.00 | 0.00 | 48 | 979.5 |
| 20260510083008 | 45 | 5 | 1.0 | 5.0 | 0.00 | 0.00 | 0.00 | 48 | 979.4 |
| 20260510081513 | 45 | 5 | 2.0 | 7.0 | 0.00 | 0.00 | 0.00 | 48 | 979.2 |
| 20260510080004 | 46 | 6 | 3.0 | 7.0 | 0.00 | 0.00 | 0.00 | 47 | 978.8 |
| 20260510074600 | 45 | 6 | 3.0 | 8.0 | 0.00 | 0.00 | 0.00 | 46 | 978.4 |
| 20260510073057 | 45 | 6 | 2.0 | 7.0 | 0.00 | 0.00 | 0.00 | 47 | 978.3 |
| 20260510071557 | 46 | 6 | 2.0 | 6.0 | 0.00 | 0.00 | 0.00 | 47 | 977.9 |
| 20260510070055 | 46 | 6 | 2.0 | 5.0 | 0.00 | 0.00 | 0.00 | 46 | 978.0 |
| 20260510064552 | 46 | 6 | 2.0 | 6.0 | 0.00 | 0.00 | 0.00 | 45 | 977.8 |
| 20260510063052 | 46 | 6 | 2.0 | 8.0 | 0.00 | 0.00 | 0.00 | 45 | 977.8 |
| 20260510061552 | 46 | 6 | 1.0 | 4.0 | 0.00 | 0.00 | 0.00 | 44 | 977.8 |
| 20260510060047 | 47 | 360 | 1.0 | 7.0 | 0.00 | 0.00 | 0.00 | 43 | 977.6 |
| 20260510054543 | 48 | 360 | 2.0 | 6.0 | 0.00 | 0.00 | 0.00 | 42 | 977.4 |
| 20260510053053 | 48 | 360 | 3.0 | 5.0 | 0.00 | 0.00 | 0.00 | 42 | 977.1 |
| 20260510051543 | 49 | 360 | 2.0 | 8.0 | 0.00 | 0.00 | 0.00 | 41 | 977.0 |
| 20260510050033 | 49 | 360 | 2.0 | 7.0 | 0.00 | 0.00 | 0.00 | 41 | 976.6 |
| 20260510044533 | 50 | 360 | 3.0 | 8.0 | 0.00 | 0.00 | 0.00 | 40 | 976.7 |
| 20260510043041 | 50 | 360 | 2.0 | 7.0 | 0.00 | 0.00 | 0.00 | 40 | 976.6 |
| 20260510041531 | 50 | 360 | 2.0 | 5.0 | 0.00 | 0.00 | 0.00 | 39 | 976.4 |
| 20260510040036 | 51 | 360 | 2.0 | 7.0 | 0.00 | 0.00 | 0.00 | 38 | 976.2 |
| 20260510034526 | 52 | 360 | 2.0 | 6.0 | 0.00 | 0.00 | 0.00 | 37 | 975.9 |
| 20260510033024 | 53 | 360 | 2.0 | 6.0 | 0.00 | 0.00 | 0.00 | 36 | 975.8 |
| 20260510031525 | 53 | 360 | 2.0 | 6.0 | 0.00 | 0.00 | 0.00 | 36 | 975.7 |
| 20260510030021 | 54 | 360 | 1.0 | 6.0 | 0.00 | 0.00 | 0.00 | 37 | 975.4 |
| 20260510024520 | 55 | 360 | 2.0 | 7.0 | 0.00 | 0.00 | 0.00 | 35 | 975.1 |
| 20260510023017 | 55 | 360 | 4.0 | 8.0 | 0.00 | 0.00 | 0.00 | 34 | 974.8 |
| 20260510021530 | 56 | 360 | 3.0 | 8.0 | 0.00 | 0.00 | 0.00 | 34 | 974.5 |
| 20260510020013 | 57 | 360 | 3.0 | 6.0 | 0.00 | 0.00 | 0.00 | 34 | 974.2 |
| 20260510014511 | 57 | 360 | 2.0 | 6.0 | 0.00 | 0.00 | 0.00 | 33 | 973.9 |
| 20260510013007 | 58 | 360 | 3.0 | 8.0 | 0.00 | 0.00 | 0.00 | 33 | 973.5 |
| 20260510011506 | 59 | 360 | 3.0 | 9.0 | 0.00 | 0.00 | 0.00 | 32 | 973.1 |
| 20260510010004 | 60 | 360 | 6.0 | 12.0 | 0.00 | 0.00 | 0.00 | 31 | 972.9 |
| 20260510004501 | 61 | 360 | 9.0 | 16.0 | 0.00 | 0.00 | 0.00 | 29 | 972.7 |
| 20260510003103 | 62 | 360 | 9.0 | 20.0 | 0.00 | 0.00 | 0.00 | 30 | 972.4 |
| 20260510001558 | 63 | 6 | 5.0 | 17.0 | 0.00 | 0.00 | 0.00 | 31 | 972.2 |
| 20260510000101 | 64 | 6 | 10.0 | 16.0 | 0.00 | 0.00 | 0.00 | 29 | 971.9 |
| 20260509234554 | 64 | 6 | 8.0 | 17.0 | 0.00 | 0.00 | 0.00 | 31 | 971.7 |
| 20260509233056 | 65 | 5 | 7.0 | 17.0 | 0.00 | 0.00 | 0.00 | 31 | 971.6 |
| 20260509231551 | 65 | 5 | 10.0 | 19.0 | 0.00 | 0.00 | 0.00 | 30 | 971.4 |
| 20260509230054 | 66 | 5 | 9.0 | 22.0 | 0.00 | 0.00 | 0.00 | 30 | 971.2 |
| 20260509224548 | 66 | 5 | 10.0 | 22.0 | 0.00 | 0.00 | 0.00 | 29 | 970.9 |
| 20260509223047 | 66 | 6 | 7.0 | 17.0 | 0.00 | 0.00 | 0.00 | 32 | 970.6 |
| 20260509221546 | 67 | 6 | 7.0 | 24.0 | 0.00 | 0.00 | 0.00 | 29 | 970.6 |
| 20260509220045 | 68 | 5 | 4.0 | 23.0 | 0.00 | 0.00 | 0.00 | 35 | 970.5 |
| 20260509214558 | 67 | 6 | 8.0 | 19.0 | 0.00 | 0.00 | 0.00 | 31 | 970.3 |
| 20260509213041 | 67 | 6 | 11.0 | 21.0 | 0.00 | 0.00 | 0.00 | 31 | 970.3 |
| 20260509211538 | 68 | 6 | 7.0 | 20.0 | 0.00 | 0.00 | 0.00 | 32 | 970.1 |
| 20260509210042 | 68 | 6 | 7.0 | 16.0 | 0.00 | 0.00 | 0.00 | 33 | 970.0 |
| 20260509204537 | 68 | 5 | 10.0 | 24.0 | 0.00 | 0.00 | 0.00 | 32 | 969.9 |
| 20260509203037 | 68 | 6 | 6.0 | 20.0 | 0.00 | 0.00 | 0.00 | 35 | 970.0 |
| 20260509201534 | 67 | 5 | 11.0 | 21.0 | 0.00 | 0.00 | 0.00 | 35 | 969.9 |
| 20260509200035 | 68 | 6 | 15.0 | 24.0 | 0.00 | 0.00 | 0.00 | 34 | 969.9 |
| 20260509194534 | 68 | 6 | 8.0 | 18.0 | 0.00 | 0.00 | 0.00 | 37 | 969.6 |
| 20260509193031 | 67 | 5 | 11.0 | 19.0 | 0.00 | 0.00 | 0.00 | 38 | 969.5 |
| 20260509191539 | 66 | 5 | 8.0 | 18.0 | 0.00 | 0.00 | 0.00 | 46 | 969.6 |
| 20260509190057 | 64 | 5 | 6.0 | 17.0 | 0.00 | 0.00 | 0.00 | 51 | 969.7 |
| 20260509184534 | 64 | 360 | 5.0 | 16.0 | 0.00 | 0.00 | 0.00 | 55 | 969.8 |
| 20260509183030 | 62 | 360 | 8.0 | 16.0 | 0.00 | 0.00 | 0.00 | 57 | 969.9 |